Time,TemperatureF,DewpointF,PressureIn,WindDirection,WindDirectionDegrees,WindSpeedMPH,WindSpeedGustMPH,Humidity,HourlyPrecipIn,Conditions,Clouds,dailyrainin,SolarRadiationWatts/m^2,SoftwareType,DateUTC
2013-08-16 00:01:00,56.0,51.0,-100.00,SSW,202,2.0,4.0,83,0.00,,,0.00,0.000000,,2013-08-16 04:01:00,
2013-08-16 00:43:00,56.0,51.0,-100.00,SSW,202,2.0,4.0,83,0.00,,,0.00,0.000000,,2013-08-16 04:43:00,
2013-08-16 00:54:00,56.0,51.0,-100.00,SSW,202,2.0,4.0,83,0.00,,,0.00,0.000000,,2013-08-16 04:54:00,
2013-08-16 01:22:00,54.0,51.0,-100.00,South,189,2.0,4.0,91,0.00,,,0.00,0.000000,,2013-08-16 05:22:00,
2013-08-16 01:32:00,54.0,51.0,-100.00,South,189,2.0,4.0,91,0.00,,,0.00,0.000000,,2013-08-16 05:32:00,
2013-08-16 02:01:00,53.0,52.0,-100.00,SSW,209,2.0,4.0,98,0.00,,,0.00,0.000000,,2013-08-16 06:01:00,
2013-08-16 03:00:00,53.0,52.0,-100.00,SSW,209,2.0,4.0,98,0.00,,,0.00,0.000000,,2013-08-16 07:00:00,
2013-08-16 03:01:00,52.0,52.0,-100.00,South,182,2.0,4.0,99,0.00,,,0.00,0.000000,,2013-08-16 07:01:00,
2013-08-16 03:42:00,52.0,52.0,-100.00,South,182,2.0,4.0,99,0.00,,,0.00,0.000000,,2013-08-16 07:42:00,
2013-08-16 03:52:00,52.0,52.0,-100.00,South,182,2.0,4.0,99,0.00,,,0.00,0.000000,,2013-08-16 07:52:00,
2013-08-16 04:01:00,51.0,51.0,-100.00,SSW,198,2.0,3.0,100,0.00,,,0.00,0.000000,,2013-08-16 08:01:00,
2013-08-16 04:42:00,51.0,51.0,-100.00,SSW,198,2.0,3.0,100,0.00,,,0.00,0.000000,,2013-08-16 08:42:00,
2013-08-16 04:52:00,51.0,51.0,-100.00,SSW,198,2.0,3.0,100,0.00,,,0.00,0.000000,,2013-08-16 08:52:00,
2013-08-16 05:01:00,51.0,51.0,-100.00,NNE,31,2.0,3.0,100,0.00,,,0.00,0.000000,,2013-08-16 09:01:00,
2013-08-16 05:42:00,51.0,51.0,-100.00,NNE,31,2.0,3.0,100,0.00,,,0.00,0.000000,,2013-08-16 09:42:00,
2013-08-16 05:53:00,51.0,51.0,-100.00,NNE,31,2.0,3.0,100,0.00,,,0.00,0.000000,,2013-08-16 09:53:00,
2013-08-16 06:01:00,50.0,50.0,-100.00,NE,44,1.0,2.0,100,0.00,,,0.00,0.000000,,2013-08-16 10:01:00,
2013-08-16 06:42:00,50.0,50.0,-100.00,NE,44,1.0,2.0,100,0.00,,,0.00,0.000000,,2013-08-16 10:42:00,
2013-08-16 06:53:00,50.0,50.0,-100.00,NE,44,1.0,2.0,100,0.00,,,0.00,0.000000,,2013-08-16 10:53:00,
2013-08-16 07:01:00,49.0,49.0,-100.00,ENE,68,1.0,2.0,100,0.00,,,0.00,5.000000,,2013-08-16 11:01:00,
2013-08-16 07:22:00,49.0,49.0,-100.00,ENE,68,1.0,2.0,100,0.00,,,0.00,5.000000,,2013-08-16 11:22:00,
2013-08-16 07:32:00,49.0,49.0,-100.00,ENE,68,1.0,2.0,100,0.00,,,0.00,5.000000,,2013-08-16 11:32:00,
2013-08-16 07:42:00,49.0,49.0,-100.00,ENE,68,1.0,2.0,100,0.00,,,0.00,5.000000,,2013-08-16 11:42:00,
2013-08-16 07:52:00,49.0,49.0,-100.00,ENE,68,1.0,2.0,100,0.00,,,0.00,5.000000,,2013-08-16 11:52:00,
2013-08-16 08:01:00,49.0,49.0,-100.00,NE,52,1.0,2.0,100,0.00,,,0.00,60.000000,,2013-08-16 12:01:00,
2013-08-16 08:22:00,49.0,49.0,-100.00,NE,52,1.0,2.0,100,0.00,,,0.00,60.000000,,2013-08-16 12:22:00,
2013-08-16 08:32:00,49.0,49.0,-100.00,NE,52,1.0,2.0,100,0.00,,,0.00,60.000000,,2013-08-16 12:32:00,
2013-08-16 08:42:00,49.0,49.0,-100.00,NE,52,1.0,2.0,100,0.00,,,0.00,60.000000,,2013-08-16 12:42:00,
2013-08-16 08:52:00,49.0,49.0,-100.00,NE,52,1.0,2.0,100,0.00,,,0.00,60.000000,,2013-08-16 12:52:00,
2013-08-16 09:01:00,57.0,57.0,-100.00,NE,36,1.0,4.0,100,0.00,,,0.00,320.000000,,2013-08-16 13:01:00,
2013-08-16 09:22:00,57.0,57.0,-100.00,NE,36,1.0,4.0,100,0.00,,,0.00,320.000000,,2013-08-16 13:22:00,
2013-08-16 09:32:00,57.0,57.0,-100.00,NE,36,1.0,4.0,100,0.00,,,0.00,320.000000,,2013-08-16 13:32:00,
2013-08-16 09:42:00,57.0,57.0,-100.00,NE,36,1.0,4.0,100,0.00,,,0.00,320.000000,,2013-08-16 13:42:00,
2013-08-16 09:53:00,57.0,57.0,-100.00,NE,36,1.0,4.0,100,0.00,,,0.00,320.000000,,2013-08-16 13:53:00,
2013-08-16 10:01:00,61.0,56.0,-100.00,SSW,201,2.0,4.0,84,0.00,,,0.00,526.000000,,2013-08-16 14:01:00,
2013-08-16 10:22:00,61.0,56.0,-100.00,SSW,201,2.0,4.0,84,0.00,,,0.00,526.000000,,2013-08-16 14:22:00,
2013-08-16 10:32:00,61.0,56.0,-100.00,SSW,201,2.0,4.0,84,0.00,,,0.00,526.000000,,2013-08-16 14:32:00,
2013-08-16 10:42:00,61.0,56.0,-100.00,SSW,201,2.0,4.0,84,0.00,,,0.00,526.000000,,2013-08-16 14:42:00,
2013-08-16 10:52:00,61.0,56.0,-100.00,SSW,201,2.0,4.0,84,0.00,,,0.00,526.000000,,2013-08-16 14:52:00,
2013-08-16 11:01:00,64.0,56.0,-100.00,SW,236,4.0,6.0,75,0.00,,,0.00,757.000000,,2013-08-16 15:01:00,
2013-08-16 11:43:00,64.0,56.0,-100.00,SW,236,4.0,6.0,75,0.00,,,0.00,757.000000,,2013-08-16 15:43:00,
2013-08-16 11:56:00,64.0,56.0,-100.00,SW,236,4.0,6.0,75,0.00,,,0.00,757.000000,,2013-08-16 15:56:00,
2013-08-16 12:01:00,68.0,54.0,-100.00,SW,221,4.0,8.0,61,0.00,,,0.00,908.000000,,2013-08-16 16:01:00,
2013-08-16 12:44:00,68.0,54.0,-100.00,SW,221,4.0,8.0,61,0.00,,,0.00,908.000000,,2013-08-16 16:44:00,
2013-08-16 12:57:00,68.0,54.0,-100.00,SW,221,4.0,8.0,61,0.00,,,0.00,908.000000,,2013-08-16 16:57:00,
2013-08-16 13:01:00,68.0,51.0,-100.00,SSE,160,3.0,6.0,54,0.00,,,0.00,628.000000,,2013-08-16 17:01:00,
2013-08-16 13:28:00,68.0,51.0,-100.00,SSE,160,3.0,6.0,54,0.00,,,0.00,628.000000,,2013-08-16 17:28:00,
2013-08-16 13:34:00,68.0,51.0,-100.00,SSE,160,3.0,6.0,54,0.00,,,0.00,628.000000,,2013-08-16 17:34:00,
2013-08-16 13:47:00,68.0,51.0,-100.00,SSE,160,3.0,6.0,54,0.00,,,0.00,628.000000,,2013-08-16 17:47:00,
2013-08-16 14:00:00,68.0,51.0,-100.00,SSE,160,3.0,6.0,54,0.00,,,0.00,628.000000,,2013-08-16 18:00:00,
2013-08-16 14:01:00,72.0,54.0,-100.00,NW,305,3.0,6.0,53,0.00,,,0.00,913.000000,,2013-08-16 18:01:00,
2013-08-16 14:50:00,-999.0,-99.9,-100.00,NW,305,3.0,6.0,53,0.00,,,0.00,913.000000,,2013-08-16 18:50:00,
2013-08-16 15:01:00,70.0,53.0,-100.00,ENE,74,3.0,7.0,54,0.00,,,0.00,909.000000,,2013-08-16 19:01:00,
2013-08-16 15:25:00,70.0,53.0,-100.00,ENE,74,3.0,7.0,54,0.00,,,0.00,909.000000,,2013-08-16 19:25:00,
2013-08-16 15:36:00,70.0,53.0,-100.00,ENE,74,3.0,7.0,54,0.00,,,0.00,909.000000,,2013-08-16 19:36:00,
2013-08-16 15:46:00,70.0,53.0,-100.00,ENE,74,3.0,7.0,54,0.00,,,0.00,909.000000,,2013-08-16 19:46:00,
2013-08-16 15:55:00,70.0,53.0,-100.00,ENE,74,3.0,7.0,54,0.00,,,0.00,909.000000,,2013-08-16 19:55:00,
2013-08-16 16:01:00,73.0,53.0,-100.00,SE,141,3.0,8.0,49,0.00,,,0.00,776.000000,,2013-08-16 20:01:00,
2013-08-16 16:23:00,73.0,53.0,-100.00,SE,141,3.0,8.0,49,0.00,,,0.00,776.000000,,2013-08-16 20:23:00,
2013-08-16 16:38:00,73.0,53.0,-100.00,SE,141,3.0,8.0,49,0.00,,,0.00,776.000000,,2013-08-16 20:38:00,
2013-08-16 16:44:00,73.0,53.0,-100.00,SE,141,3.0,8.0,49,0.00,,,0.00,776.000000,,2013-08-16 20:44:00,
2013-08-16 16:52:00,73.0,53.0,-100.00,SE,141,3.0,8.0,49,0.00,,,0.00,776.000000,,2013-08-16 20:52:00,
2013-08-16 17:01:00,72.0,51.0,-100.00,SSW,210,5.0,9.0,48,0.00,,,0.00,760.000000,,2013-08-16 21:01:00,
2013-08-16 17:40:00,-999.0,-99.9,-100.00,SSW,210,5.0,9.0,-999,0.00,,,0.00,760.000000,,2013-08-16 21:40:00,
2013-08-16 17:54:00,72.0,51.0,-100.00,SSW,210,5.0,9.0,48,0.00,,,0.00,760.000000,,2013-08-16 21:54:00,
2013-08-16 18:01:00,72.0,52.0,-100.00,South,181,4.0,7.0,50,0.00,,,0.00,567.000000,,2013-08-16 22:01:00,
2013-08-16 18:43:00,72.0,52.0,-100.00,South,181,4.0,7.0,50,0.00,,,0.00,567.000000,,2013-08-16 22:43:00,
2013-08-16 18:52:00,72.0,52.0,-100.00,South,181,4.0,7.0,50,0.00,,,0.00,567.000000,,2013-08-16 22:52:00,
2013-08-16 19:01:00,69.0,52.0,-100.00,SSW,202,4.0,7.0,54,0.00,,,0.00,350.000000,,2013-08-16 23:01:00,
2013-08-16 19:23:00,69.0,52.0,-100.00,SSW,202,4.0,7.0,54,0.00,,,0.00,350.000000,,2013-08-16 23:23:00,
2013-08-16 19:32:00,69.0,52.0,-100.00,SSW,202,4.0,7.0,54,0.00,,,0.00,350.000000,,2013-08-16 23:32:00,
2013-08-16 19:42:00,69.0,52.0,-100.00,SSW,202,4.0,7.0,54,0.00,,,0.00,350.000000,,2013-08-16 23:42:00,
2013-08-16 19:52:00,69.0,52.0,-100.00,SSW,202,4.0,7.0,54,0.00,,,0.00,350.000000,,2013-08-16 23:52:00,
2013-08-16 20:01:00,63.0,52.0,-100.00,SSW,196,5.0,8.0,68,0.00,,,0.00,115.000000,,2013-08-17 00:01:00,
2013-08-16 20:22:00,63.0,52.0,-100.00,SSW,196,5.0,8.0,68,0.00,,,0.00,115.000000,,2013-08-17 00:22:00,
2013-08-16 20:33:00,63.0,52.0,-100.00,SSW,196,5.0,8.0,68,0.00,,,0.00,115.000000,,2013-08-17 00:33:00,
2013-08-16 20:42:00,63.0,52.0,-100.00,SSW,196,5.0,8.0,68,0.00,,,0.00,115.000000,,2013-08-17 00:42:00,
2013-08-16 20:52:00,63.0,52.0,-100.00,SSW,196,5.0,8.0,68,0.00,,,0.00,115.000000,,2013-08-17 00:52:00,
2013-08-16 21:01:00,61.0,52.0,-100.00,SSW,193,5.0,9.0,72,0.00,,,0.00,2.000000,,2013-08-17 01:01:00,
2013-08-16 21:42:00,61.0,52.0,-100.00,SSW,193,5.0,9.0,72,0.00,,,0.00,2.000000,,2013-08-17 01:42:00,
2013-08-16 21:52:00,61.0,52.0,-100.00,SSW,193,5.0,9.0,72,0.00,,,0.00,2.000000,,2013-08-17 01:52:00,
2013-08-16 22:01:00,60.0,55.0,-100.00,South,183,4.0,9.0,84,0.00,,,0.00,0.000000,,2013-08-17 02:01:00,
2013-08-16 22:21:00,60.0,55.0,-100.00,South,183,4.0,9.0,84,0.00,,,0.00,0.000000,,2013-08-17 02:21:00,
2013-08-16 22:32:00,60.0,55.0,-100.00,South,183,4.0,9.0,84,0.00,,,0.00,0.000000,,2013-08-17 02:32:00,
2013-08-16 22:42:00,60.0,55.0,-100.00,South,183,4.0,9.0,84,0.00,,,0.00,0.000000,,2013-08-17 02:42:00,
2013-08-16 22:52:00,60.0,55.0,-100.00,South,183,4.0,9.0,84,0.00,,,0.00,0.000000,,2013-08-17 02:52:00,
2013-08-16 23:01:00,58.0,57.0,-100.00,SSE,165,2.0,7.0,95,0.00,,,0.00,0.000000,,2013-08-17 03:01:00,
2013-08-16 23:43:00,58.0,57.0,-100.00,SSE,165,2.0,7.0,95,0.00,,,0.00,0.000000,,2013-08-17 03:43:00,
2013-08-16 23:53:00,58.0,57.0,-100.00,SSE,165,2.0,7.0,95,0.00,,,0.00,0.000000,,2013-08-17 03:53:00,